Terug naar catalogus

STARLINK-6235

ActiefCommunicatieVLEO
NORAD 57094·PAYLOAD·🇺🇸 United States

Gelanceerd Jun 22, 2023 vanaf Vandenberg Space Force Base

Loading…

Volgende Passages (komende 24 uur)

TLE

VersSource: CelesTrak SupGP

Epoch: Sep 15, 2026, 02:45 UTC

1 57094C 23088AY  26258.11506944  .00027048  00000+0  97956-3 0  2586
2 57094  42.9999 106.3340 0001520 266.5740 344.0913 15.27568817    19

Volg STARLINK-6235 in realtime met AllMySat

Download on the App Store